"2009-11-04 00:00:00",1385566,4.892,142.7,4.477,0.359,16.02,106.0176,14.68,15.72,20.04,0,110.5,13.3,15.48,104.7
"2009-11-04 00:00:30",1385567,4.559,136.6,5.706,0.377,16.19,106.0176,14.68,15.73,19.56,0,110.5,13.3,15.48,98.6
"2009-11-04 00:01:00",1385568,4.672,142.5,2.364,0.288,15.91,106.0176,14.68,15.71,19.73,0,110.5,13.3,15.48,104.5
"2009-11-04 00:01:30",1385569,4.999,145.3,1.556,0.125,15.86,106.0176,14.68,15.71,20.08,0,110.5,13.3,15.48,107.3
"2009-11-04 00:02:00",1385570,5.347,147.8,1.189,0.219,15.89,106.0179,14.68,15.71,20.14,0,110.5,13.3,15.48,109.8
"2009-11-04 00:02:30",1385571,5.355,147.9,1.302,0.168,15.82,106.0176,14.68,15.7,20.36,0,110.5,13.3,15.48,109.9
"2009-11-04 00:03:00",1385572,5.31,148.3,1.731,0.168,15.92,106.0185,14.68,15.7,20.39,0,110.4,13.3,15.48,110.3
"2009-11-04 00:03:30",1385573,5.524,149.6,1.662,0.194,15.83,106.0197,14.68,15.69,20.33,0,110.4,13.3,15.49,111.6
"2009-11-04 00:04:00",1385574,5.932,150.2,0.449,0.066,15.56,106.0236,14.69,15.68,20.6,0,110.4,13.31,15.50,112.2
"2009-11-04 00:04:30",1385575,5.731,154.3,1.455,0.132,15.78,106.028,14.7,15.7,20.73,0,110.4,13.31,15.51,116.3
"2009-11-04 00:05:00",1385576,5.812,156.4,0.335,0.089,15.69,106.0311,14.71,15.69,20.81,0,110.4,13.31,15.52,118.4
"2009-11-04 00:05:30",1385577,5.793,155.9,0.674,0.036,15.68,106.0322,14.72,15.69,20.85,0,110.4,13.32,15.52,117.9
"2009-11-04 00:06:00",1385578,5.922,155,0.55,0,15.74,106.0301,14.71,15.69,20.87,0,110.4,13.32,15.51,117.0
"2009-11-04 00:06:30",1385579,5.913,156.6,0.323,0.023,15.79,106.0238,14.69,15.67,20.7,0,110.4,13.32,15.50,118.6
"2009-11-04 00:07:00",1385580,5.699,158,1.478,0.153,15.84,106.0137,14.67,15.69,20.56,0,110.4,13.32,15.47,120.0
"2009-11-04 00:07:30",1385581,5.536,156.7,0.844,0.083,15.83,106.0136,14.67,15.68,20.32,0,110.4,13.32,15.47,118.7
"2009-11-04 00:08:00",1385582,5.476,157.1,1.171,0.093,15.89,106.0151,14.67,15.68,20.15,0,110.4,13.32,15.47,119.1
"2009-11-04 00:08:30",1385583,5.567,156,0.916,0.163,15.8,106.0166,14.68,15.66,20.1,0,110.4,13.32,15.48,118.0
"2009-11-04 00:09:00",1385584,5.801,154.2,1.014,0.055,15.7,106.0172,14.68,15.66,20.27,0,110.4,13.32,15.48,116.2
"2009-11-04 00:09:30",1385585,5.834,153.2,1.153,0.117,15.77,106.0196,14.68,15.66,20.41,0,110.4,13.32,15.49,115.2
"2009-11-04 00:10:00",1385586,5.871,155.6,0.857,0.089,15.86,106.0196,14.68,15.65,20.21,0,110.4,13.32,15.49,117.6
"2009-11-04 00:10:30",1385587,5.998,154.6,0.539,0.104,15.79,106.0196,14.68,15.65,20.19,0,110.4,13.32,15.49,116.6
"2009-11-04 00:11:00",1385588,6.278,154,0.472,0.031,15.61,106.0196,14.68,15.65,20.02,0,110.4,13.32,15.49,116.0
"2009-11-04 00:11:30",1385589,6.279,154.6,0.551,0.041,15.58,106.0196,14.68,15.65,19.78,0,110.4,13.32,15.49,116.6
"2009-11-04 00:12:00",1385590,6.313,154.9,0.838,0.036,15.56,106.0188,14.68,15.63,19.46,0,110.4,13.32,15.48,116.9
"2009-11-04 00:12:30",1385591,6.336,155.5,0.536,0.05,15.53,106.0134,14.67,15.64,19.33,0,110.4,13.32,15.47,117.5
"2009-11-04 00:13:00",1385592,6.276,154,0.564,0.051,15.57,106.0058,14.65,15.62,19.36,0,110.4,13.32,15.45,116.0
"2009-11-04 00:13:30",1385593,6.405,152,0.529,0.058,15.47,105.9917,14.61,15.62,19.62,0,110.4,13.33,15.41,114.0
"2009-11-04 00:14:00",1385594,6.478,151.7,0.515,0.036,15.47,105.9864,14.6,15.62,19.8,0,110.4,13.33,15.40,113.7
"2009-11-04 00:14:30",1385595,6.485,150,0.231,0.055,15.42,105.9858,14.6,15.62,19.82,0,110.4,13.33,15.40,112.0
"2009-11-04 00:15:00",1385596,7.746,155.4,6.867,1.381,17.4,105.9858,14.6,15.74,19.99,0,110.4,13.29,15.40,117.4
"2009-11-04 00:15:30",1385597,6.765,151.8,3.969,0.682,15.91,105.9858,14.6,15.73,19.92,0,110.4,13.29,15.40,113.8
"2009-11-04 00:16:00",1385598,6.526,150.7,0.767,0.09,14.97,105.9855,14.6,15.6,19.83,0,110.4,13.33,15.40,112.7
"2009-11-04 00:16:30",1385599,7.025,147.2,1.253,0.142,14.7,105.9737,14.57,15.59,19.83,0,110.4,13.33,15.37,109.2
"2009-11-04 00:17:00",1385600,8.72,152.1,6.876,1.383,16.98,105.9613,14.53,15.66,19.86,0,110.4,13.29,15.34,114.1
"2009-11-04 00:17:30",1385601,9.38,156.4,6.192,1.333,18.23,105.9525,14.51,15.78,19.92,0,110.4,13.29,15.31,118.4
"2009-11-04 00:18:00",1385602,9.5,157.7,6.951,1.146,18.22,105.952,14.51,15.78,19.89,0,110.4,13.29,15.31,119.7
"2009-11-04 00:18:30",1385603,7.27,149.1,1.445,0.543,13.92,105.952,14.51,15.54,19.75,0,110.4,13.29,15.31,111.1
"2009-11-04 00:19:00",1385604,6.998,149.2,0.971,0.051,13.55,105.95,14.5,15.53,19.74,0,110.4,13.32,15.31,111.2
"2009-11-04 00:19:30",1385605,6.939,147.9,0.829,0.08,13.56,105.9308,14.46,15.52,19.77,0,110.4,13.32,15.26,109.9
"2009-11-04 00:20:00",1385606,7.065,146.6,0.979,0.176,14.01,105.919,14.43,15.51,19.74,0,110.4,13.32,15.23,108.6
"2009-11-04 00:20:30",1385607,7.221,145.6,0.568,0.103,14.44,105.9185,14.42,15.49,19.67,0,110.4,13.33,15.23,107.6
"2009-11-04 00:21:00",1385608,7.097,145.1,0.503,0.134,14.6,105.9185,14.42,15.49,19.66,0,110.4,13.33,15.23,107.1
"2009-11-04 00:21:30",1385609,7.553,146.6,4.903,0.839,15.72,105.9197,14.43,15.56,19.76,0,110.4,13.29,15.23,108.6
"2009-11-04 00:22:00",1385610,7.534,149.8,5.65,1.53,16.27,105.9086,14.4,15.53,19.8,0,110.4,13.29,15.20,111.8
"2009-11-04 00:22:30",1385611,7.979,151.6,8.4,1.074,16.96,105.908,14.4,15.52,19.69,0,110.4,13.29,15.20,113.6
"2009-11-04 00:23:00",1385612,7.495,146.6,0.889,0.14,14.71,105.896,14.37,15.43,19.76,0,110.4,13.33,15.17,108.6
"2009-11-04 00:23:30",1385613,7.679,147.8,1.071,0.08,14.71,105.8945,14.36,15.43,19.88,0,110.4,13.33,15.16,109.8
"2009-11-04 00:24:00",1385614,7.603,145.3,1.47,0.1,14.85,105.8951,14.36,15.41,19.88,0,110.4,13.33,15.17,107.3
"2009-11-04 00:24:30",1385615,7.658,144.8,1.454,0.116,14.97,105.9016,14.38,15.41,19.81,0,110.4,13.33,15.18,106.8
"2009-11-04 00:25:00",1385616,7.297,145.9,1.857,0.209,15.11,105.9049,14.39,15.4,19.68,0,110.4,13.33,15.19,107.9
"2009-11-04 00:25:30",1385617,7.644,143.7,1.58,0.136,15.27,105.907,14.39,15.39,19.64,0,110.4,13.33,15.20,105.7
"2009-11-04 00:26:00",1385618,7.71,143.8,2.075,0.208,15.32,105.9085,14.4,15.39,19.58,0,110.4,13.33,15.20,105.8
"2009-11-04 00:26:30",1385619,7.987,144.9,2.097,0.272,15.39,105.9097,14.4,15.38,19.6,0,110.4,13.33,15.20,106.9
"2009-11-04 00:27:00",1385620,7.387,144.6,1.119,0.121,15.41,105.9092,14.4,15.39,19.63,0,110.4,13.33,15.20,106.6
"2009-11-04 00:27:30",1385621,7.467,144.7,1.163,0.094,15.45,105.9062,14.39,15.39,19.67,0,110.4,13.33,15.19,106.7
"2009-11-04 00:28:00",1385622,8.63,149,7.871,1.443,17.59,105.9034,14.39,15.44,19.69,0,110.4,13.29,15.19,111.0
"2009-11-04 00:28:30",1385623,7.507,147,6.099,0.974,16.43,105.9032,14.38,15.53,19.83,0,110.4,13.3,15.19,109.0
"2009-11-04 00:29:00",1385624,7.102,142.2,1.137,0.091,14.94,105.9013,14.38,15.4,19.59,0,110.4,13.33,15.18,104.2
"2009-11-04 00:29:30",1385625,8.27,148.9,7.391,1.373,16.86,105.9028,14.38,15.46,19.63,0,110.4,13.3,15.19,110.9
"2009-11-04 00:30:00",1385626,7.228,144.1,5.481,0.804,15.64,105.9058,14.39,15.48,19.64,0,110.4,13.3,15.19,106.1
"2009-11-04 00:30:30",1385627,7.216,141.7,1.312,0.103,14.6,105.9038,14.39,15.36,19.49,0,110.4,13.33,15.19,103.7
"2009-11-04 00:31:00",1385628,7.221,139.7,0.954,0.148,14.61,105.9055,14.39,15.34,19.49,0,110.4,13.33,15.19,101.7
"2009-11-04 00:31:30",1385629,6.845,139.3,1.87,0.222,14.88,105.9089,14.4,15.36,19.46,0,110.4,13.33,15.20,101.3
"2009-11-04 00:32:00",1385630,7.006,140,1.212,0.171,14.99,105.9103,14.4,15.34,19.45,0,110.4,13.33,15.21,102.0
"2009-11-04 00:32:30",1385631,7.212,140.1,0.973,0.112,15.17,105.9109,14.4,15.34,19.39,0,110.4,13.34,15.21,102.1
"2009-11-04 00:33:00",1385632,7.096,139.5,0.799,0.104,15.26,105.9114,14.41,15.34,19.38,0,110.4,13.33,15.21,101.5
"2009-11-04 00:33:30",1385633,7.124,140.4,1.051,0.079,15.34,105.9123,14.41,15.34,19.34,0,110.4,13.33,15.21,102.4
"2009-11-04 00:34:00",1385634,7.367,141.5,1.605,0.254,15.44,105.9142,14.41,15.34,19.34,0,110.4,13.33,15.22,103.5
"2009-11-04 00:34:30",1385635,7.263,142.1,1.282,0.103,15.49,105.9151,14.42,15.34,19.34,0,110.4,13.33,15.22,104.1
"2009-11-04 00:35:00",1385636,6.862,140.1,0.908,0.127,15.5,105.9171,14.42,15.35,19.34,0,110.4,13.33,15.22,102.1
"2009-11-04 00:35:30",1385637,6.54,140.4,0.806,0.11,15.51,105.9196,14.43,15.35,19.32,0,110.4,13.33,15.23,102.4
"2009-11-04 00:36:00",1385638,6.459,138.4,1.436,0.061,15.55,105.9202,14.43,15.36,19.35,0,110.4,13.33,15.23,100.4
"2009-11-04 00:36:30",1385639,6.454,136.9,0.593,0.027,15.57,105.9202,14.43,15.36,19.33,0,110.4,13.33,15.23,98.9
"2009-11-04 00:37:00",1385640,6.504,136.2,0.539,0.049,15.5,105.9202,14.43,15.36,19.05,0,110.4,13.33,15.23,98.2
"2009-11-04 00:37:30",1385641,6.388,136.3,0.606,0.028,15.56,105.9202,14.43,15.36,19.01,0,110.4,13.33,15.23,98.3
"2009-11-04 00:38:00",1385642,6.271,135.6,1.038,0.07,15.5,105.9202,14.43,15.37,19.05,0,110.4,13.34,15.23,97.6
"2009-11-04 00:38:30",1385643,6.172,134.7,0.727,0.06,15.47,105.9202,14.43,15.37,18.97,0,110.4,13.34,15.23,96.7
"2009-11-04 00:39:00",1385644,6.177,134.2,1.052,0.048,15.45,105.9202,14.43,15.38,18.77,0,110.4,13.34,15.23,96.2
"2009-11-04 00:39:30",1385645,7.495,140.5,6.524,1.318,17.34,105.9202,14.43,15.53,18.86,0,110.4,13.31,15.23,102.5
"2009-11-04 00:40:00",1385646,6.834,137.1,5.119,0.937,16.2,105.9202,14.43,15.51,18.75,0,110.4,13.31,15.23,99.1
"2009-11-04 00:40:30",1385647,6.59,134.5,0.453,0.128,14.96,105.9202,14.43,15.37,18.59,0,110.4,13.35,15.23,96.5
"2009-11-04 00:41:00",1385648,6.506,135.9,0.689,0.069,14.87,105.9202,14.43,15.38,18.6,0,110.3,13.34,15.23,97.9
"2009-11-04 00:41:30",1385649,6.735,138.1,1.561,0.211,15.05,105.9202,14.43,15.38,18.67,0,110.4,13.35,15.23,100.1
"2009-11-04 00:42:00",1385650,7.824,146.2,5.938,1.295,17.15,105.9193,14.43,15.6,19.28,0,110.4,13.31,15.23,108.2
"2009-11-04 00:42:30",1385651,8.55,150.3,6.823,1.227,18.33,105.9179,14.42,15.61,19.58,0,110.4,13.31,15.22,112.3
"2009-11-04 00:43:00",1385652,8.76,152.1,7.816,1.308,18.43,105.9083,14.4,15.55,19.44,0,110.4,13.31,15.20,114.1
"2009-11-04 00:43:30",1385653,7.163,144.2,9.81,0.623,14.85,105.9013,14.38,15.37,18.73,0,110.4,13.34,15.18,106.2
"2009-11-04 00:44:00",1385654,6.493,167.5,8.52,0.559,14.62,105.9142,14.41,15.36,18.54,0,110.4,13.34,15.22,129.5
"2009-11-04 00:44:30",1385655,5.447,155.8,8.86,0.501,14.34,105.9202,14.43,15.39,18.59,0,110.4,13.34,15.23,117.8
"2009-11-04 00:45:00",1385656,5.652,148.9,7.752,0.348,14.39,105.9202,14.43,15.4,18.62,0,110.4,13.34,15.23,110.9
"2009-11-04 00:45:30",1385657,5.642,146.6,4.246,0.533,14.48,105.9216,14.43,15.4,18.69,0,110.3,13.34,15.23,108.6
"2009-11-04 00:46:00",1385658,5.655,146.9,0.812,0.109,14.48,105.9351,14.47,15.42,18.64,0,110.3,13.35,15.27,108.9
"2009-11-04 00:46:30",1385659,5.603,146.1,1.983,0.064,14.76,105.9421,14.48,15.42,18.46,0,110.4,13.35,15.29,108.1
"2009-11-04 00:47:00",1385660,5.947,145.9,6.737,0.439,15.26,105.9421,14.48,15.44,18.3,0,110.3,13.35,15.29,107.9
"2009-11-04 00:47:30",1385661,5.32,142.7,2.017,0.283,15.23,105.9436,14.49,15.43,18.54,0,110.4,13.35,15.29,104.7
"2009-11-04 00:48:00",1385662,5.713,139.8,0.775,0.128,15.2,105.9498,14.5,15.44,18.59,0,110.3,13.35,15.31,101.8
"2009-11-04 00:48:30",1385663,5.44,137.1,0.772,0.145,15.24,105.952,14.51,15.45,18.25,0,110.3,13.35,15.31,99.1
"2009-11-04 00:49:00",1385664,5.504,137.1,1.019,0.071,15.34,105.9509,14.51,15.45,18.09,0,110.4,13.35,15.31,99.1
"2009-11-04 00:49:30",1385665,5.394,137.5,0.613,0.045,15.35,105.9517,14.51,15.46,18.04,0,110.4,13.34,15.31,99.5
"2009-11-04 00:50:00",1385666,5.535,135.3,1.804,0.187,15.4,105.949,14.5,15.46,18.03,0,110.3,13.34,15.30,97.3
"2009-11-04 00:50:30",1385667,5.771,134,1.576,0.143,15.42,105.9461,14.49,15.46,17.99,0,110.3,13.35,15.30,96.0
"2009-11-04 00:51:00",1385668,5.677,135.2,0.865,0.147,15.42,105.9459,14.49,15.46,17.91,0,110.3,13.34,15.30,97.2
"2009-11-04 00:51:30",1385669,5.421,135.2,1.696,0.103,15.71,105.9428,14.49,15.58,17.98,0,110.3,13.34,15.29,97.2
"2009-11-04 00:52:00",1385670,6.435,138.8,6.885,1.351,17.16,105.9405,14.48,15.51,17.86,0,110.3,13.31,15.28,100.8
"2009-11-04 00:52:30",1385671,5.513,131.9,4.753,0.821,16.06,105.9312,14.46,15.59,17.9,0,110.3,13.31,15.26,93.9
"2009-11-04 00:53:00",1385672,5.252,130.1,1.87,0.157,14.91,105.9249,14.44,15.46,17.8,0,110.3,13.34,15.24,92.1
"2009-11-04 00:53:30",1385673,5.219,132.4,1.614,0.131,14.9,105.9229,14.44,15.46,17.94,0,110.3,13.34,15.24,94.4
"2009-11-04 00:54:00",1385674,5.594,128.9,3.001,0.179,15.1,105.9229,14.44,15.47,18.03,0,110.3,13.34,15.24,90.9
"2009-11-04 00:54:30",1385675,5.58,120.3,2.448,0.072,15.34,105.9246,14.44,15.46,18.29,0,110.3,13.35,15.24,82.3
"2009-11-04 00:55:00",1385676,5.442,117.4,0.816,0.058,15.34,105.9252,14.44,15.45,18.72,0,110.3,13.35,15.24,79.4
"2009-11-04 00:55:30",1385677,5.33,117.7,2.648,0.124,15.42,105.9264,14.44,15.44,18.76,0,110.3,13.35,15.25,79.7
"2009-11-04 00:56:00",1385678,5.546,120.7,2.945,0.159,15.46,105.9261,14.44,15.46,18.55,0,110.3,13.35,15.25,82.7
"2009-11-04 00:56:30",1385679,5.432,118,1.335,0.124,15.53,105.9258,14.44,15.46,18.52,0,110.3,13.35,15.25,80.0
"2009-11-04 00:57:00",1385680,5.372,118.1,0.591,0.11,15.6,105.9285,14.45,15.46,18.67,0,110.3,13.35,15.25,80.1
"2009-11-04 00:57:30",1385681,5.294,120.4,0.894,0.048,15.72,105.9279,14.45,15.46,18.82,0,110.3,13.35,15.25,82.4
"2009-11-04 00:58:00",1385682,5.428,120.2,2.193,0.189,15.62,105.93,14.45,15.46,19,0,110.3,13.35,15.26,82.2
"2009-11-04 00:58:30",1385683,5.61,125.8,1.454,0.14,15.41,105.9297,14.45,15.46,18.49,0,110.3,13.35,15.26,87.8
"2009-11-04 00:59:00",1385684,5.4,126.6,2.835,0.167,15.45,105.9309,14.46,15.45,18.05,0,110.3,13.35,15.26,88.6
"2009-11-04 00:59:30",1385685,4.995,122.6,5.433,0.309,15.85,105.9318,14.46,15.47,18.25,0,110.3,13.36,15.26,84.6
"2009-11-04 01:00:00",1385686,4.41,120.6,4.465,0.426,16.12,105.933,14.46,15.46,18.57,0,110.3,13.36,15.26,82.6
"2009-11-04 01:00:30",1385687,3.994,117.9,9.27,0.481,16.14,105.9352,14.47,15.46,18.51,0,110.3,13.36,15.27,79.9
"2009-11-04 01:01:00",1385688,4.623,126.1,4.357,0.694,15.96,105.9512,14.51,15.46,18.52,0,110.4,13.36,15.31,88.1
"2009-11-04 01:01:30",1385689,4.834,120.6,2.937,0.173,15.64,105.9608,14.53,15.48,18.73,0,110.4,13.36,15.34,82.6
"2009-11-04 01:02:00",1385690,5.4,125.5,4.244,0.115,15.49,105.9637,14.54,15.48,18.5,0,110.4,13.36,15.34,87.5
"2009-11-04 01:02:30",1385691,5.452,131,2.54,0.337,15.44,105.9668,14.55,15.48,17.92,0,110.4,13.36,15.35,93.0
"2009-11-04 01:03:00",1385692,5.351,124.6,4.84,0.468,16.08,105.9684,14.55,15.49,18.13,0,110.4,13.36,15.35,86.6
"2009-11-04 01:03:30",1385693,5.624,122.1,5.018,0.483,15.96,105.9719,14.56,15.49,18.67,0,110.4,13.36,15.36,84.1
"2009-11-04 01:04:00",1385694,5.345,124.9,2.52,0.15,15.71,105.9737,14.57,15.51,18.92,0,110.4,13.36,15.37,86.9
"2009-11-04 01:04:30",1385695,5.589,127.3,1.813,0.199,15.5,105.9749,14.57,15.52,18.57,0,110.4,13.36,15.37,89.3
"2009-11-04 01:05:00",1385696,5.849,130.8,1.535,0.161,15.46,105.977,14.57,15.52,18.07,0,110.3,13.36,15.38,92.8
"2009-11-04 01:05:30",1385697,5.67,127.2,1.461,0.125,15.42,105.9788,14.58,15.53,17.91,0,110.4,13.36,15.38,89.2
"2009-11-04 01:06:00",1385698,5.507,131.1,1.339,0.144,15.44,105.9809,14.58,15.52,17.7,0,110.4,13.35,15.39,93.1
"2009-11-04 01:06:30",1385699,5.294,132.8,1.21,0.068,15.39,105.9836,14.59,15.53,17.57,0,110.3,13.35,15.39,94.8
"2009-11-04 01:07:00",1385700,5.167,132.7,2.629,0.109,15.47,105.9812,14.58,15.52,17.54,0,110.4,13.35,15.39,94.7
"2009-11-04 01:07:30",1385701,5.081,126.5,5.645,1.175,16.45,105.9839,14.59,15.55,17.6,0,110.4,13.31,15.39,88.5
"2009-11-04 01:08:00",1385702,5.139,126.5,7.891,1.366,17.84,105.986,14.6,15.64,18.4,0,110.3,13.31,15.40,88.5
"2009-11-04 01:08:30",1385703,3.772,122,4.488,0.162,15.53,105.9869,14.6,15.54,18.58,0,110.4,13.35,15.40,84.0
"2009-11-04 01:09:00",1385704,3.982,117.5,0.894,0.095,15.3,105.9878,14.6,15.52,18.61,0,110.3,13.35,15.40,79.5
"2009-11-04 01:09:30",1385705,3.972,120.2,1.163,0.117,15.25,105.9872,14.6,15.54,18.73,0,110.3,13.35,15.40,82.2
"2009-11-04 01:10:00",1385706,4.139,119.1,0.977,0.071,15.25,105.9887,14.6,15.53,18.75,0,110.4,13.35,15.41,81.1
"2009-11-04 01:10:30",1385707,4.157,120.2,0.904,0.07,15.31,105.9884,14.6,15.53,18.57,0,110.4,13.35,15.41,82.2
"2009-11-04 01:11:00",1385708,4.139,120.6,1.057,0.081,15.42,105.9884,14.6,15.54,18.49,0,110.4,13.35,15.41,82.6
"2009-11-04 01:11:30",1385709,4.129,118.4,1.317,0.072,15.55,105.9881,14.6,15.53,18.56,0,110.4,13.36,15.41,80.4
"2009-11-04 01:12:00",1385710,4.243,118.9,1.024,0.102,15.59,105.9892,14.61,15.53,18.58,0,110.4,13.36,15.41,80.9
"2009-11-04 01:12:30",1385711,4.254,120.7,1.72,0.071,15.7,105.9898,14.61,15.55,18.57,0,110.4,13.36,15.41,82.7
"2009-11-04 01:13:00",1385712,4.297,121.6,1.438,0.092,15.77,105.9895,14.61,15.54,18.65,0,110.4,13.36,15.41,83.6
"2009-11-04 01:13:30",1385713,4.382,120.9,2.595,0.169,15.88,105.9898,14.61,15.55,18.74,0,110.4,13.36,15.41,82.9
"2009-11-04 01:14:00",1385714,4.225,124.2,3.399,0.072,15.87,105.9898,14.61,15.54,18.74,0,110.4,13.36,15.41,86.2
"2009-11-04 01:14:30",1385715,4.485,123.9,1.046,0.102,15.85,105.9898,14.61,15.53,18.68,0,110.4,13.36,15.41,85.9
"2009-11-04 01:15:00",1385716,4.621,128.9,2.121,0.138,15.94,105.9898,14.61,15.57,18.71,0,110.4,13.36,15.41,90.9
"2009-11-04 01:15:30",1385717,4.893,127.7,3.149,0.359,15.9,105.9898,14.61,15.55,18.67,0,110.4,13.36,15.41,89.7
"2009-11-04 01:16:00",1385718,4.812,121.5,7.192,0.56,15.92,106.0079,14.65,15.57,18.34,0,110.4,13.36,15.46,83.5
"2009-11-04 01:16:30",1385719,4.992,119.1,3.781,0.625,15.98,106.0175,14.68,15.57,18.28,0,110.4,13.36,15.48,81.1
"2009-11-04 01:17:00",1385720,4.21,131,4.724,1.44,16.44,106.0237,14.69,15.6,17.93,0,110.4,13.36,15.50,93.0
"2009-11-04 01:17:30",1385721,4.66,124.7,4.397,0.498,15.83,106.0237,14.69,15.6,17.69,0,110.4,13.36,15.50,86.7
"2009-11-04 01:18:00",1385722,5.862,115,4.175,0.589,15.84,106.0265,14.7,15.62,17.67,0,110.4,13.36,15.50,77.0
"2009-11-04 01:18:30",1385723,5.451,113.3,5.856,0.462,16.22,106.0375,14.73,15.63,17.62,0,110.4,13.36,15.53,75.3
"2009-11-04 01:19:00",1385724,5.576,100.6,7.809,0.485,16.35,106.0553,14.77,15.64,17.44,0,110.4,13.36,15.58,62.6
"2009-11-04 01:19:30",1385725,5.329,107.1,9.11,0.344,16.03,106.0575,14.78,15.66,17.13,0,110.4,13.36,15.58,69.1
"2009-11-04 01:20:00",1385726,4.076,100.3,11.03,0.88,16.13,106.066,14.8,15.68,16.78,0,110.4,13.36,15.61,62.3
"2009-11-04 01:20:30",1385727,2.327,78.32,30.54,0.592,16.38,106.0911,14.87,15.73,17.04,0,110.4,13.36,15.67,40.3
"2009-11-04 01:21:00",1385728,4.181,102.2,10.42,0.729,16.39,106.0914,14.87,15.74,17.2,0,110.4,13.36,15.67,64.2
"2009-11-04 01:21:30",1385729,2.783,91.9,18.5,0.673,16.3,106.1105,14.92,15.77,17.03,0,110.4,13.36,15.72,53.9
"2009-11-04 01:22:00",1385730,2.62,95.3,18.58,0.819,16.25,106.1221,14.95,15.79,16.94,0,110.4,13.36,15.75,57.3
"2009-11-04 01:22:30",1385731,2.012,82.2,20.45,0.46,16.27,106.1252,14.95,15.82,17.04,0,110.4,13.36,15.76,44.2
"2009-11-04 01:23:00",1385732,2.097,118.5,25,0.708,16.28,106.1252,14.95,15.85,17.18,0,110.4,13.36,15.76,80.5
"2009-11-04 01:23:30",1385733,3.913,139,10.61,0.596,16.04,106.1252,14.95,15.85,16.96,0,110.4,13.36,15.76,101.0
"2009-11-04 01:24:00",1385734,3.032,122.4,10.43,0.738,16.15,106.1252,14.95,15.88,16.6,0,110.4,13.36,15.76,84.4
"2009-11-04 01:24:30",1385735,2.931,109.9,7.785,0.623,15.85,106.1252,14.95,15.88,16.45,0,110.4,13.36,15.76,71.9
"2009-11-04 01:25:00",1385736,3.572,118.3,7.676,0.556,15.77,106.1255,14.95,15.9,16.07,0,110.4,13.36,15.76,80.3
"2009-11-04 01:25:30",1385737,4.414,106.7,2.379,0.178,15.64,106.1266,14.96,15.89,15.29,0,110.4,13.36,15.76,68.7
"2009-11-04 01:26:00",1385738,4.854,103.5,1.242,0.083,15.73,106.1297,14.97,15.92,14.98,0,110.4,13.36,15.77,65.5
"2009-11-04 01:26:30",1385739,5.007,109.8,3.406,0.124,15.73,106.128,14.96,15.93,14.78,0,110.4,13.36,15.76,71.8
"2009-11-04 01:27:00",1385740,4.781,113.7,1.282,0.103,15.67,106.1255,14.95,15.93,14.65,0,110.4,13.36,15.76,75.7
"2009-11-04 01:27:30",1385741,4.541,118.2,1.342,0.111,15.75,106.1252,14.95,15.92,14.62,0,110.4,13.36,15.76,80.2
"2009-11-04 01:28:00",1385742,4.489,114.7,1.447,0.048,15.7,106.1252,14.95,15.94,14.67,0,110.4,13.36,15.76,76.7
"2009-11-04 01:28:30",1385743,4.375,114.7,0.798,0.059,15.68,106.1252,14.95,15.93,14.69,0,110.4,13.36,15.76,76.7
"2009-11-04 01:29:00",1385744,4.525,114.7,1.333,0.103,15.71,106.1252,14.95,15.91,14.67,0,110.4,13.36,15.76,76.7
"2009-11-04 01:29:30",1385745,4.717,123.4,5.271,0.094,15.54,106.1252,14.95,15.91,14.86,0,110.4,13.37,15.76,85.4
"2009-11-04 01:30:00",1385746,4.878,137.8,3.095,0.043,15.33,106.1201,14.94,15.92,15.89,0,110.4,13.37,15.74,99.8
"2009-11-04 01:30:30",1385747,4.911,148.8,2.678,0.085,15.36,106.0919,14.87,15.9,16.74,0,110.4,13.37,15.67,110.8
"2009-11-04 01:31:00",1385748,5.262,152.5,4.452,0.637,15.97,106.0914,14.87,15.96,17.08,0,110.3,13.33,15.67,114.5
"2009-11-04 01:31:30",1385749,6.005,153.4,7.78,1.27,16.32,106.088,14.86,15.91,17.39,0,110.4,13.33,15.66,115.4
"2009-11-04 01:32:00",1385750,6.739,150.1,6.869,1.438,18.49,106.0711,14.81,16.02,17.85,0,110.4,13.33,15.62,112.1
"2009-11-04 01:32:30",1385751,7.408,151,5.247,0.96,18.86,106.0575,14.78,16.15,18.11,0,110.4,13.33,15.58,113.0
"2009-11-04 01:33:00",1385752,6.814,144.1,7.742,1.305,17.39,106.0575,14.78,16.02,18.19,0,110.4,13.33,15.58,106.1
"2009-11-04 01:33:30",1385753,4.85,132.5,1.75,0.086,13.15,106.0462,14.75,15.79,17.77,0,110.4,13.36,15.55,94.5
"2009-11-04 01:34:00",1385754,4.924,145.2,4.965,0.408,11.77,105.9997,14.63,15.75,19.75,0,110.4,13.36,15.44,107.2
"2009-11-04 01:34:30",1385755,3.864,140.2,8.88,0.329,10.8,105.855,14.26,15.6,24.78,0,110.4,13.36,15.06,102.2
"2009-11-04 01:35:00",1385756,4.837,107.2,21.88,0.72,11.12,105.7713,14.05,15.43,26.33,0,110.4,13.36,14.85,69.2
"2009-11-04 01:35:30",1385757,5.378,95.8,8.38,1.097,12.07,105.7467,13.98,15.29,26.8,0,110.4,13.33,14.78,57.8
"2009-11-04 01:36:00",1385758,6.316,109.7,10.68,1.227,15.44,105.718,13.91,15.48,27.37,0,110.4,13.33,14.71,71.7
"2009-11-04 01:36:30",1385759,6.35,126.4,9.23,0.724,16.62,105.6884,13.83,15.44,27.59,0,110.4,13.33,14.64,88.4
"2009-11-04 01:37:00",1385760,4.938,127.3,8.8,1.21,15.66,105.6526,13.74,15.25,26.62,0,110.4,13.33,14.54,89.3
"2009-11-04 01:37:30",1385761,2.51,135.3,8.89,0.372,11.91,105.6215,13.66,14.97,25.09,0,110.4,13.36,14.46,97.3
"2009-11-04 01:38:00",1385762,1.82,64.67,38.22,0.506,10.14,105.5719,13.54,14.89,25.62,0,110.4,13.36,14.34,26.7
"2009-11-04 01:38:30",1385763,2.927,61.75,12.29,0.486,10.23,105.5243,13.41,14.79,27.24,0,110.4,13.36,14.21,23.8
"2009-11-04 01:39:00",1385764,3.319,68.31,7.908,0.421,10.33,105.476,13.29,14.66,28.01,0,110.4,13.36,14.09,30.3
"2009-11-04 01:39:30",1385765,3.886,69.33,4.945,0.631,11.11,105.4484,13.22,14.56,27.65,0,110.4,13.36,14.02,31.3
"2009-11-04 01:40:00",1385766,4.551,70.93,2.881,0.272,11.82,105.4213,13.15,14.56,27.01,0,110.4,13.36,13.95,32.9
"2009-11-04 01:40:30",1385767,6.536,87.1,12.37,1.04,15.69,105.3914,13.07,14.67,27.04,0,110.4,13.33,13.87,49.1
"2009-11-04 01:41:00",1385768,7.224,112.3,6.026,1.066,15.94,105.3567,12.99,14.64,27.97,0,110.3,13.33,13.78,74.3
"2009-11-04 01:41:30",1385769,6.735,106.1,7.091,1.271,14.04,105.3125,12.87,14.48,28.41,0,110.4,13.33,13.67,68.1
"2009-11-04 01:42:00",1385770,5.702,103.1,2.268,0.12,10.53,105.2654,12.75,14.15,28.03,0,110.3,13.36,13.55,65.1
"2009-11-04 01:42:30",1385771,6.276,100.2,2.881,0.249,10.77,105.2222,12.64,14.06,27.7,0,110.3,13.36,13.44,62.2
"2009-11-04 01:43:00",1385772,6.048,109.2,4.406,0.243,11.26,105.1777,12.53,13.95,27.25,0,110.3,13.36,13.32,71.2
"2009-11-04 01:43:30",1385773,6.313,114.7,5.083,0.936,12.65,105.1368,12.42,13.92,27.59,0,110.3,13.33,13.22,76.7
"2009-11-04 01:44:00",1385774,8.01,120.3,6.071,1.198,16.06,105.1015,12.33,13.97,27.68,0,110.3,13.33,13.13,82.3
"2009-11-04 01:44:30",1385775,8.5,120.4,5.866,1.162,16.19,105.0705,12.25,13.93,27.67,0,110.3,13.33,13.05,82.4
"2009-11-04 01:45:00",1385776,8.65,123.8,6.737,1.164,15.48,105.042,12.18,13.81,27.99,0,110.3,13.33,12.97,85.8
"2009-11-04 01:45:30",1385777,8.3,125.2,7.699,1.418,15.36,105.0133,12.11,13.7,27.7,0,110.3,13.33,12.90,87.2
"2009-11-04 01:46:00",1385778,7.307,117.5,6.528,0.674,12,105.0037,12.08,13.43,27.27,0,110.3,13.33,12.88,79.5
"2009-11-04 01:46:30",1385779,6.968,123.7,3.439,0.252,12.02,104.9778,12.02,13.38,26.48,0,110.3,13.37,12.81,85.7
"2009-11-04 01:47:00",1385780,7.077,134.3,5.323,0.343,12.68,104.9779,12.02,13.32,25.8,0,110.3,13.37,12.81,96.3